Tracking 29892 objects as of 21-Nov-2024
HD Live streaming from Space Station
objects crossing your sky now

STARLINK-3396

Track STARLINK-3396 now!
10-day predictions
STARLINK-3396 is classified as:


NORAD ID: 51129
Int'l Code: 2022-005AB
Perigee: 545.9 km
Apogee: 547.9 km
Inclination: 53.2 °
Period: 95.4 minutes
Semi major axis: 6917 km
RCS: Unknown
Launch date: January 19, 2022
Source: United States (US)
Launch site: AIR FORCE EASTERN TEST RANGE (AFETR)
Your satellite tracking list
Your tracking list is empty




NASA's NSSDC Master Catalog

Two Line Element Set (TLE):
1 51129U 22005AB  24325.28401410  .00000260  00000-0  34447-4 0  9997
2 51129  53.2190 268.8057 0001470  80.2886 279.8272 15.08836070157110
Source of the keplerian elements: AFSPC